Location: Arleux
(50.3632°N, 2.8721°E)
Time: 11:26:32
(UTC+00:00)

Cosmos 2285 Rocket - Pass Details

Date: 15 December 2019
Orbit: 971 x 998 km, 74.0° (Epoch: 24 January)

Event Time Altitude Azimuth Distance (km) Brightness Sun altitude
Exits shadow 06:51:09 - 335° (NNW) 3,585 6.5 -7.7°
Reaches altitude 10° 06:53:25 10° 336° (NNW) 2,738 5.9 -7.3°
Maximum altitude 06:59:47 85° 66° (ENE) 985 4.1 -6.5°
Drops below altitude 10° 07:06:05 10° 156° (SSE) 2,711 7.3 -5.6°
Sets 07:08:36 0° 156° (SSE) 3,653 8.0 -5.2°
